TimeEST,TemperatureF,Dew PointF,Humidity,Sea Level PressureIn,VisibilityMPH,Wind Direction,Wind SpeedMPH,Gust SpeedMPH,PrecipitationIn,Events,Conditions,WindDirDegrees,DateUTC
12:53 AM,51.1,46.0,83,30.18,10.0,ENE,6.9,-,N/A,,Clear,70,2014-01-13 05:53:00
1:53 AM,48.9,45.0,86,30.17,10.0,Calm,Calm,-,N/A,,Clear,0,2014-01-13 06:53:00
2:53 AM,48.9,46.0,90,30.17,10.0,Calm,Calm,-,N/A,,Clear,0,2014-01-13 07:53:00
3:53 AM,48.0,45.0,89,30.17,10.0,Calm,Calm,-,N/A,,Clear,0,2014-01-13 08:53:00
4:53 AM,48.9,45.0,86,30.16,10.0,Calm,Calm,-,N/A,,Clear,0,2014-01-13 09:53:00
5:53 AM,48.9,45.0,86,30.16,10.0,Calm,Calm,-,N/A,,Clear,0,2014-01-13 10:53:00
6:53 AM,48.9,45.0,86,30.17,10.0,Calm,Calm,-,N/A,,Clear,0,2014-01-13 11:53:00
7:53 AM,50.0,45.0,83,30.18,10.0,Calm,Calm,-,N/A,,Scattered Clouds,0,2014-01-13 12:53:00
8:53 AM,55.9,48.9,77,30.19,10.0,ENE,4.6,-,N/A,,Scattered Clouds,60,2014-01-13 13:53:00
9:53 AM,61.0,51.1,70,30.18,10.0,ESE,3.5,-,N/A,,Scattered Clouds,110,2014-01-13 14:53:00
10:53 AM,66.9,55.0,66,30.17,10.0,SSE,6.9,-,N/A,,Scattered Clouds,150,2014-01-13 15:53:00
11:53 AM,70.0,57.0,63,30.14,10.0,SSE,6.9,-,N/A,,Mostly Cloudy,160,2014-01-13 16:53:00
12:53 PM,75.0,59.0,57,30.09,10.0,SSE,8.1,-,N/A,,Clear,160,2014-01-13 17:53:00
1:53 PM,75.0,59.0,57,30.06,10.0,South,11.5,-,N/A,,Partly Cloudy,190,2014-01-13 18:53:00
2:53 PM,77.0,57.9,52,30.05,10.0,South,8.1,-,N/A,,Clear,180,2014-01-13 19:53:00
3:53 PM,78.1,59.0,52,30.02,10.0,South,6.9,-,N/A,,Clear,180,2014-01-13 20:53:00
4:53 PM,73.9,57.9,57,30.03,10.0,SSW,6.9,-,N/A,,Clear,200,2014-01-13 21:53:00
5:53 PM,71.1,60.1,68,30.04,10.0,South,4.6,-,N/A,,Partly Cloudy,190,2014-01-13 22:53:00
6:53 PM,69.1,60.1,73,30.03,10.0,South,3.5,-,N/A,,Clear,180,2014-01-13 23:53:00
7:53 PM,66.0,60.1,81,30.03,10.0,South,4.6,-,N/A,,Clear,170,2014-01-14 00:53:00
8:53 PM,66.9,61.0,81,30.04,10.0,South,3.5,-,N/A,,Clear,190,2014-01-14 01:53:00
9:53 PM,69.1,62.1,78,30.02,10.0,SSE,6.9,-,N/A,,Clear,160,2014-01-14 02:53:00
10:53 PM,68.0,63.0,84,30.00,10.0,South,4.6,-,N/A,,Clear,170,2014-01-14 03:53:00
11:53 PM,68.0,64.0,87,29.98,10.0,South,4.6,-,N/A,,Mostly Cloudy,180,2014-01-14 04:53:00